DE2MSF Weather Reports


time (UTC)temp
C
wind
direction
speed
KPH
gust
KPH
rain 1hr
cm
rain 24hr
cm
rain mn
cm
humidity
%
barometer
mb
20260507031529 7 327 1.6 6.4 0.00 0.66 0.00 93 1013.1
20260507030029 7 349 3.2 9.7 0.00 0.69 0.00 93 1013.2
20260507023030 7 321 1.6 6.4 0.00 0.76 0.00 92 1013.1
20260507021531 7 331 1.6 6.4 0.00 0.81 0.00 92 1013.1
20260507013034 7 331 1.6 9.7 0.00 1.04 0.00 91 1012.8
20260507011534 7 334 1.6 6.4 0.00 1.09 0.00 91 1012.8
20260507010034 7 341 1.6 6.4 0.00 1.14 0.00 91 1012.5
20260507003034 7 327 1.6 6.4 0.00 1.19 0.00 91 1012.6
20260507001536 7 346 1.6 6.4 0.00 1.22 0.00 91 1012.6
20260506234533 7 337 1.6 9.7 0.00 1.32 0.00 90 1012.6
20260506233033 8 341 1.6 6.4 0.00 1.35 0.00 89 1012.3
20260506231534 8 314 1.6 9.7 0.00 1.37 0.00 89 1012.2
20260506230033 8 0 0.0 3.2 0.00 1.45 0.00 88 1012.4
20260506223033 8 336 1.6 3.2 0.00 1.47 0.00 86 1012.2
20260506221533 8 334 1.6 6.4 0.00 1.47 0.00 85 1012.1
20260506220033 8 331 1.6 6.4 0.00 1.47 0.00 85 1012.0
20260506214533 8 322 0.0 3.2 0.00 1.47 1.47 85 1012.1
20260506213033 8 9 1.6 6.4 0.00 1.47 1.47 85 1012.1
20260506204533 8 17 3.2 6.4 0.00 1.47 1.47 85 1011.7
20260506201533 8 354 1.6 6.4 0.00 1.50 1.47 86 1011.5
20260506200032 8 355 1.6 6.4 0.00 1.50 1.47 85 1011.6
20260506191534 8 352 3.2 6.4 0.00 1.52 1.47 85 1011.2
20260506190032 8 8 3.2 6.4 0.00 1.52 1.47 86 1011.0
20260506183033 9 30 1.6 6.4 0.00 1.52 1.47 85 1010.7
20260506180031 9 23 3.2 9.7 0.00 1.52 1.47 85 1010.4
20260506174532 8 13 3.2 11.3 0.00 1.52 1.47 85 1010.4
20260506173032 9 13 6.4 17.7 0.00 1.52 1.47 85 1010.2
20260506171531 9 36 4.8 14.5 0.00 1.52 1.47 85 1010.2
20260506170031 9 35 4.8 17.7 0.00 1.52 1.47 85 1010.0
20260506164531 9 22 4.8 14.5 0.00 1.52 1.47 86 1010.1
20260506163032 9 31 3.2 12.9 0.00 1.52 1.47 87 1010.0
20260506160031 8 48 4.8 22.5 0.00 1.52 1.47 89 1009.9
20260506154535 9 7 4.8 14.5 0.00 1.52 1.47 90 1009.9
20260506153031 8 31 6.4 17.7 0.00 1.52 1.47 91 1009.9
20260506151531 9 16 4.8 12.9 0.00 1.52 1.47 92 1009.9
20260506150031 8 16 4.8 12.9 0.00 1.52 1.47 92 1009.7
20260506144531 8 17 3.2 11.3 0.00 1.52 1.47 94 1009.4
20260506143031 8 29 6.4 14.5 0.00 1.52 1.47 94 1009.3
20260506141531 8 13 6.4 14.5 0.00 1.52 1.47 95 1009.4
20260506124530 8 25 3.2 11.3 0.00 1.52 1.47 96 1009.0
20260506123030 8 7 4.8 17.7 0.00 1.52 1.47 96 1008.9
20260506121531 8 36 4.8 12.9 0.03 1.52 1.47 96 1008.9
20260506120029 8 18 4.8 12.9 0.03 1.52 1.47 96 1008.7
20260506113029 8 16 4.8 14.5 0.03 1.55 1.47 96 1008.9
20260506111530 8 37 4.8 12.9 0.03 1.52 1.45 96 1008.5
20260506110030 8 21 4.8 17.7 0.03 1.52 1.45 96 1008.8
20260506104529 7 23 6.4 20.9 0.03 1.52 1.45 96 1008.6
20260506103029 7 36 4.8 17.7 0.03 1.52 1.45 97 1008.5
20260506101530 7 16 4.8 14.5 0.03 1.52 1.42 97 1008.4
20260506100029 7 358 6.4 17.7 0.03 1.52 1.42 97 1008.4
20260506094530 7 21 6.4 14.5 0.03 1.52 1.42 97 1008.4
20260506091529 7 10 6.4 17.7 0.03 1.50 1.37 98 1008.2
20260506090029 7 20 6.4 14.5 0.03 1.50 1.37 98 1008.1
20260506084529 7 346 6.4 14.5 0.05 1.50 1.37 98 1008.1
20260506083029 7 10 6.4 17.7 0.03 1.47 1.35 98 1008.0
20260506081529 7 41 6.4 20.9 0.05 1.47 1.35 98 1007.9
20260506073029 7 2 8.0 20.9 0.10 1.45 1.32 98 1007.8
20260506071530 7 4 6.4 17.7 0.10 1.42 1.30 98 1007.6
20260506044531 8 1 4.8 12.9 0.20 1.30 1.04 99 1006.9
20260506043029 8 332 4.8 17.7 0.18 1.27 0.99 99 1007.1
20260506041529 8 353 4.8 14.5 0.18 1.27 0.97 99 1006.9
20260506040028 8 6 3.2 11.3 0.15 1.19 0.89 99 1007.1
20260506034530 8 5 3.2 11.3 0.13 1.17 0.84 99 1007.0
20260506033028 8 11 4.8 12.9 0.15 1.14 0.81 99 1007.2